W2DRT Weather Reports


time (UTC)temp
C
wind
direction
speed
KPH
gust
KPH
rain 1hr
cm
rain 24hr
cm
rain mn
cm
humidity
%
barometer
mb
20260508012809 13 0.0 0.0 0.00 0.00 0.00 60 1009.9
20260508011804 13 0.0 0.0 0.00 0.00 0.00 58 1009.9
20260508010803 13 0.0 0.0 0.00 0.00 0.00 54 1010.2
20260508005803 14 0.0 0.0 0.00 0.00 0.00 51 1009.9
20260508004802 14 0.0 0.0 0.00 0.00 0.00 48 1009.6
20260508003801 15 0.0 0.0 0.00 0.00 0.00 44 1009.6
20260508002800 15 0.0 0.0 0.00 0.00 0.00 39 1009.6
20260508001800 15 0.0 0.0 0.00 0.00 0.00 37 1009.2
20260508000757 16 0.0 0.0 0.00 0.00 0.00 35 1008.9
20260507235757 16 0.0 0.0 0.00 0.00 0.00 33 1008.9
20260507234751 16 0.0 0.0 0.00 0.00 0.00 31 1008.9
20260507233749 16 0.0 0.0 0.00 0.00 0.00 30 1008.9
20260507232745 17 0.0 0.0 0.00 0.00 0.00 29 1008.9
20260507231744 17 0.0 0.0 0.00 0.00 0.00 29 1008.9
20260507230743 17 0.0 0.0 0.00 0.00 0.00 25 1008.5
20260507225740 18 0.0 0.0 0.00 0.00 0.00 24 1008.5
20260507224738 18 0.0 0.0 0.00 0.00 0.00 23 1008.5
20260507223737 18 0.0 0.0 0.00 0.00 0.00 24 1008.5
20260507222737 19 0.0 0.0 0.00 0.00 0.00 22 1008.5
20260507221736 19 0.0 0.0 0.00 0.00 0.00 23 1008.5
20260507220734 20 0.0 0.0 0.00 0.00 0.00 18 1008.5
20260507215734 21 0.0 0.0 0.00 0.00 0.00 17 1008.5
20260507214735 23 0.0 0.0 0.00 0.00 0.00 10 1008.5
20260507213733 23 0.0 0.0 0.00 0.00 0.00 10 1008.9
20260507212732 25 0.0 0.0 0.00 0.00 0.00 10 1008.9
20260507211731 26 0.0 0.0 0.00 0.00 0.00 14 1008.5
20260507210730 26 0.0 0.0 0.00 0.00 0.00 20 1008.5
20260507205730 26 0.0 0.0 0.00 0.00 0.00 23 1008.5
20260507204728 24 0.0 0.0 0.00 0.00 0.00 24 1008.2
20260507203724 22 0.0 0.0 0.00 0.00 0.00 27 1008.5
20260507202723 19 0.0 0.0 0.00 0.00 0.00 28 1008.5
20260507201720 18 0.0 0.0 0.00 0.00 0.00 30 1008.5
20260507200720 19 0.0 0.0 0.00 0.00 0.00 29 1008.9
20260507195718 19 0.0 0.0 0.00 0.00 0.00 33 1008.9
20260507194718 18 0.0 0.0 0.00 0.00 0.00 32 1008.9
20260507193717 18 0.0 0.0 0.00 0.00 0.00 32 1008.9
20260507192716 18 0.0 0.0 0.00 0.00 0.00 33 1008.9
20260507191714 18 0.0 0.0 0.00 0.00 0.00 35 1009.2
20260507190714 18 0.0 0.0 0.00 0.00 0.00 34 1009.2
20260507185711 18 0.0 0.0 0.00 0.00 0.00 33 1009.6
20260507184711 18 0.0 0.0 0.00 0.00 0.00 35 1009.6
20260507183711 18 0.0 0.0 0.00 0.00 0.00 35 1009.6
20260507182711 18 0.0 0.0 0.00 0.00 0.00 38 1009.9
20260507181709 18 0.0 0.0 0.00 0.00 0.00 40 1009.9
20260507180709 17 0.0 0.0 0.00 0.00 0.00 38 1010.2
20260507175707 17 0.0 0.0 0.00 0.00 0.00 39 1010.2
20260507174701 17 0.0 0.0 0.00 0.00 0.00 40 1010.2
20260507173656 17 0.0 0.0 0.00 0.00 0.00 41 1010.6
20260507172656 17 0.0 0.0 0.00 0.00 0.00 41 1010.6
20260507171652 16 0.0 0.0 0.00 0.00 0.00 40 1010.9
20260507170647 16 0.0 0.0 0.00 0.00 0.00 43 1010.6
20260507165645 16 0.0 0.0 0.00 0.00 0.00 46 1010.9
20260507164644 16 0.0 0.0 0.00 0.00 0.00 48 1010.9
20260507163644 16 0.0 0.0 0.00 0.00 0.00 50 1011.2
20260507162643 15 0.0 0.0 0.00 0.00 0.00 49 1011.6
20260507161642 15 0.0 0.0 0.00 0.00 0.00 50 1011.2
20260507160641 15 0.0 0.0 0.00 0.00 0.00 50 1011.2
20260507155639 15 0.0 0.0 0.00 0.00 0.00 51 1011.6
20260507145637 13 0.0 0.0 0.00 0.00 0.00 64 1012.6
20260507144637 13 0.0 0.0 0.00 0.00 0.00 64 1012.6
20260507143637 13 0.0 0.0 0.00 0.00 0.00 64 1012.6
20260507142636 12 0.0 0.0 0.00 0.00 0.00 67 1012.6
20260507141635 13 0.0 0.0 0.00 0.00 0.00 69 1012.6
20260507140634 12 0.0 0.0 0.00 0.00 0.00 68 1012.9
20260507135634 12 0.0 0.0 0.00 0.00 0.00 71 1012.9
20260507134633 12 0.0 0.0 0.00 0.00 0.00 73 1012.9
20260507133631 12 0.0 0.0 0.00 0.00 0.00 72 1012.9
20260507132632 12 0.0 0.0 0.00 0.00 0.00 74 1012.9
20260507131630 11 0.0 0.0 0.00 0.00 0.00 75 1012.6
20260507130630 11 0.0 0.0 0.00 0.00 0.00 78 1012.9
20260507125627 11 0.0 0.0 0.00 0.00 0.00 79 1012.9
20260507124626 11 0.0 0.0 0.00 0.00 0.00 80 1012.6
20260507123622 10 0.0 0.0 0.00 0.00 0.00 81 1012.6
20260507122619 10 0.0 0.0 0.00 0.00 0.00 81 1012.6
20260507121617 10 0.0 0.0 0.00 0.00 0.00 81 1012.6
20260507120615 10 0.0 0.0 0.00 0.00 0.00 84 1012.9
20260507115615 10 0.0 0.0 0.00 0.00 0.00 85 1012.9
20260507114613 10 0.0 0.0 0.00 0.00 0.00 87 1012.6
20260507113607 10 0.0 0.0 0.00 0.00 0.00 89 1012.6
20260507112602 10 0.0 0.0 0.00 0.00 0.00 90 1012.3
20260507111601 10 0.0 0.0 0.00 0.00 0.00 91 1012.3
20260507110600 10 0.0 0.0 0.00 0.00 0.00 92 1012.3
20260507105600 10 0.0 0.0 0.00 0.00 0.00 93 1011.9
20260507104559 10 0.0 0.0 0.00 0.00 0.00 93 1011.6
20260507103557 10 0.0 0.0 0.00 0.00 0.00 93 1011.9
20260507102556 10 0.0 0.0 0.00 0.00 0.00 93 1011.2
20260507101554 9 0.0 0.0 0.00 0.00 0.00 94 1011.2
20260507100554 9 0.0 0.0 0.00 0.00 0.00 94 1011.6
20260507095549 9 0.0 0.0 0.00 0.00 0.00 94 1011.6
20260507094548 9 0.0 0.0 0.00 0.00 0.00 94 1011.2
20260507093548 9 0.0 0.0 0.00 0.00 0.00 94 1011.2
20260507092543 9 0.0 0.0 0.00 0.00 0.00 94 1011.2
20260507091543 9 0.0 0.0 0.00 0.00 0.00 94 1011.2
20260507090540 9 0.0 0.0 0.00 0.00 0.00 93 1011.2
20260507085540 9 0.0 0.0 0.00 0.00 0.00 93 1011.2
20260507084539 9 0.0 0.0 0.00 0.00 0.00 93 1010.9
20260507083538 9 0.0 0.0 0.00 0.00 0.00 93 1010.9
20260507082537 9 0.0 0.0 0.00 0.00 0.00 92 1010.9
20260507081536 9 0.0 0.0 0.00 0.00 0.00 92 1010.9
20260507080535 9 0.0 0.0 0.00 0.00 0.00 93 1011.2
20260507075533 10 0.0 0.0 0.00 0.00 0.00 93 1010.9
20260507074532 10 0.0 0.0 0.00 0.00 0.00 93 1011.6
20260507073532 10 0.0 0.0 0.00 0.00 0.00 93 1011.2
20260507072533 10 0.0 0.0 0.00 0.00 0.00 93 1011.2
20260507071527 10 0.0 0.0 0.00 0.00 0.00 93 1011.2
20260507070527 10 0.0 0.0 0.00 0.00 0.00 93 1010.9
20260507065526 10 0.0 0.0 0.00 0.00 0.00 92 1011.2
20260507064521 10 0.0 0.0 0.00 0.00 0.00 92 1010.9
20260507063516 10 0.0 0.0 0.00 0.00 0.00 91 1011.2
20260507062516 10 0.0 0.0 0.00 0.00 0.00 90 1011.6
20260507061511 10 0.0 0.0 0.00 0.00 0.00 89 1010.6
20260507060506 10 0.0 0.0 0.00 0.00 0.00 86 1010.9
20260507055503 11 0.0 0.0 0.00 0.00 0.00 83 1010.9
20260507054501 12 0.0 0.0 0.00 0.00 0.00 78 1010.9
20260507053457 12 0.0 0.0 0.00 0.00 0.00 77 1010.9
20260507052452 12 0.0 0.0 0.00 0.00 0.00 77 1009.9
20260507051452 12 0.0 0.0 0.00 0.00 0.00 78 1010.2
20260507050450 13 0.0 0.0 0.00 0.00 0.00 78 1009.9
20260507045449 13 0.0 0.0 0.00 0.00 0.00 78 1009.9
20260507044449 13 0.0 0.0 0.00 0.00 0.00 78 1009.9
20260507043448 13 0.0 0.0 0.00 0.00 0.00 79 1010.2
20260507042446 13 0.0 0.0 0.00 0.00 0.00 80 1010.2
20260507041445 13 0.0 0.0 0.00 0.00 0.00 79 1010.2
20260507040443 13 0.0 0.0 0.00 0.00 0.00 79 1009.6
20260507035442 14 0.0 0.0 0.00 0.00 0.00 78 1009.9
20260507034441 15 0.0 0.0 0.00 0.00 0.00 78 1009.9
20260507033437 16 0.0 0.0 0.00 0.00 0.00 78 1009.9
20260507032437 17 0.0 0.0 0.00 0.00 0.00 83 1009.6
20260507031435 17 0.0 0.0 0.00 0.00 0.00 83 1009.2
20260507030435 17 0.0 0.0 0.00 0.00 0.00 82 1009.6
20260507025435 17 0.0 0.0 0.00 0.00 0.00 81 1009.6
20260507024430 17 0.0 0.0 0.00 0.00 0.00 78 1009.6
20260507023428 18 0.0 0.0 0.00 0.00 0.00 76 1009.2
20260507022423 18 0.0 0.0 0.00 0.00 0.00 75 1009.2
20260507021419 18 0.0 0.0 0.00 0.00 0.00 74 1009.2
20260507020414 18 0.0 0.0 0.00 0.00 0.00 73 1009.6
20260507015409 18 0.0 0.0 0.00 0.00 0.00 72 1009.6
20260507014408 18 0.0 0.0 0.00 0.00 0.00 72 1009.6